Tracking 33197 objects as of 18-Feb-2026
HD Live streaming from Space Station
objects crossing your sky now

SCOT-1 (SCOT)

Track SCOT-1 (SCOT) now!
10-day predictions


NORAD ID: 62617
Int'l Code: 2025-009J
Perigee: 447.0 km
Apogee: 452.3 km
Inclination: 97.4 °
Period: 93.4 minutes
Semi major axis: 6820 km
RCS: Unknown
Launch date: January 14, 2025
Source: Singapore (SING)
Launch site: AIR FORCE WESTERN TEST RANGE (AFWTR)
Your satellite tracking list
Your tracking list is empty




NASA's NSSDC Master Catalog

Two Line Element Set (TLE):
1 62617U 25009J   26048.78407252  .00039980  00000-0  96054-3 0  9999
2 62617  97.3946 134.0966 0003889  23.0725 337.0695 15.41223652 60884
Source of the keplerian elements: AFSPC